TimeMST,TemperatureF,Dew PointF,Humidity,Sea Level PressureIn,VisibilityMPH,Wind Direction,Wind SpeedMPH,Gust SpeedMPH,PrecipitationIn,Events,Conditions,WindDirDegrees,DateUTC
5:00 AM,26,25,94,30.25,15,NW,2.3,,,,Clear,310,2012-11-04 12:00:00
5:00 AM,26.6,24.8,93,30.25,15.0,Calm,Calm,-,N/A,,Partly Cloudy,0,2012-11-04 12:00:00
6:00 AM,24.8,23.0,93,30.28,15.0,NNW,3.5,-,N/A,,Partly Cloudy,330,2012-11-04 13:00:00
7:00 AM,24.8,23.0,93,30.28,15.0,SSW,5.8,-,N/A,,Partly Cloudy,200,2012-11-04 14:00:00
8:00 AM,19.4,19.4,100,30.30,30.0,Calm,Calm,-,N/A,,Scattered Clouds,0,2012-11-04 15:00:00
9:00 AM,24.8,23.0,93,30.30,30.0,Variable,2.3,-,N/A,,Scattered Clouds,0,2012-11-04 16:00:00
10:00 AM,32.0,26.6,80,30.29,30.0,Calm,Calm,-,N/A,,Scattered Clouds,0,2012-11-04 17:00:00
11:00 AM,38,30,65,30.24,28,South,9.2,,,,Scattered Clouds,170,2012-11-04 18:00:00
11:00 AM,39.2,30.2,70,30.24,30.0,South,9.2,-,N/A,,Scattered Clouds,170,2012-11-04 18:00:00
12:00 PM,42.8,32.0,66,30.22,30.0,South,10.4,-,N/A,,Scattered Clouds,170,2012-11-04 19:00:00
1:00 PM,42.8,32.0,66,30.21,30.0,South,5.8,-,N/A,,Mostly Cloudy,170,2012-11-04 20:00:00
2:00 PM,42.8,32.0,66,30.19,30.0,South,8.1,-,N/A,,Mostly Cloudy,170,2012-11-04 21:00:00
3:00 PM,41.0,32.0,70,30.17,30.0,South,9.2,-,N/A,,Mostly Cloudy,170,2012-11-04 22:00:00
4:00 PM,41.0,32.0,70,30.17,30.0,South,9.2,-,N/A,,Mostly Cloudy,170,2012-11-04 23:00:00
5:00 PM,40,33,67,30.16,28,South,9.2,,,,Overcast,170,2012-11-05 00:00:00
5:00 PM,39.2,33.8,81,30.16,30.0,South,8.1,-,N/A,,Overcast,170,2012-11-05 00:00:00
6:00 PM,39.2,33.8,81,30.16,15.0,SSE,10.4,-,N/A,,Mostly Cloudy,160,2012-11-05 01:00:00
7:00 PM,37.4,32.0,81,30.13,15.0,ESE,5.8,-,N/A,,Overcast,120,2012-11-05 02:00:00
8:00 PM,35.6,32.0,87,30.12,15.0,South,8.1,-,N/A,,Mostly Cloudy,190,2012-11-05 03:00:00
9:00 PM,37.4,32.0,81,30.06,15.0,SSE,9.2,-,N/A,,Scattered Clouds,160,2012-11-05 04:00:00
10:00 PM,39.2,33.8,81,29.89,15.0,South,10.4,-,N/A,,Scattered Clouds,180,2012-11-05 05:00:00